Location: Montbazon
(47.2835°N, 0.6999°E)
Time: 17:24:42
(UTC+00:00)

COSMOS 2455 - Pass Details

Date: 08 November 2025
Orbit: 897 x 910 km, 67.1° (Epoch: 09 December)

Event Time Altitude Azimuth Distance (km) Brightness Sun altitude
Exits shadow 05:28:15 17° 306° (NW) 2,167 4.3 -14.3°
Maximum altitude 05:30:16 19° 331° (NNW) 2,022 4.3 -13.9°
Drops below altitude 10° 05:34:29 10° 16° (NNE) 2,606 5.3 -13.2°
Sets 05:37:49 0° 33° (NNE) 3,551 6.3 -12.7°
